カタログに戻る

STARLINK-36144

運用中通信VLEO
NORAD 67829·PAYLOAD·🇺🇸 United States

打ち上げ Feb 16, 2026 から Vandenberg Space Force Base

Loading…

次のパス (今後24時間)

TLE

最新Source: CelesTrak SupGP

元期: Sep 15, 2026, 04:10 UTC

1 67829C 26033J   26258.17409722 -.00033069  00000+0 -11975-2 0  2586
2 67829  43.0012 277.1838 0001463 267.6651 340.3347 15.27601567    12

AllMySatでSTARLINK-36144をリアルタイム追跡

Download on the App Store